FW8889 Weather Reports


time (UTC)temp
F
wind
direction
speed
knots
gust
knots
rain 1hr
in
rain 24hr
in
rain mn
in
humidity
%
barometer
mb
20260510220051 68 0 0.0 1.7 0.01 0.21 0.02 70 1011.4
20260510214552 68 0 0.0 1.7 0.01 0.32 0.02 71 1011.5
20260510213051 69 0 0.0 3.5 0.00 0.31 0.01 67 1011.7
20260510211550 71 0 0.0 3.5 0.00 0.31 0.01 57 1011.3
20260510210049 71 159 0.9 5.2 0.00 0.31 0.01 54 1011.1
20260510204558 72 88 1.7 7.0 0.00 0.44 0.01 54 1010.9
20260510203046 73 103 0.9 8.7 0.00 0.44 0.01 53 1011.1
20260510201544 75 238 1.7 5.2 0.00 0.44 0.01 51 1010.9
20260510200113 75 282 1.7 9.6 0.00 0.44 0.01 52 1011.0
20260510194556 74 175 2.6 7.8 0.00 0.44 0.01 55 1011.2
20260510193103 73 246 1.7 5.2 0.00 0.44 0.01 56 1011.4
20260510191555 73 160 0.9 7.0 0.00 0.44 0.01 56 1011.3
20260510190047 72 220 2.6 7.0 0.00 0.44 0.01 58 1011.3
20260510184548 72 217 1.7 4.3 0.00 0.44 0.01 57 1011.6
20260510183054 71 205 1.7 4.3 0.00 0.44 0.01 58 1011.6
20260510181551 70 140 1.7 7.0 0.00 0.44 0.01 63 1011.8
20260510180048 70 285 0.9 5.2 0.00 0.44 0.01 61 1012.1
20260510174545 70 241 0.0 3.5 0.00 0.45 0.01 66 1012.3
20260510173056 69 249 1.7 5.2 0.00 0.45 0.01 65 1012.5
20260510171554 68 101 0.9 4.3 0.00 0.45 0.01 66 1012.6
20260510170101 69 178 1.7 5.2 0.00 0.45 0.01 65 1012.6
20260510164548 68 157 0.9 5.2 0.00 0.48 0.01 64 1012.4
20260510163049 67 129 1.7 4.3 0.00 0.48 0.01 68 1012.7
20260510161550 66 133 1.7 6.1 0.00 0.48 0.01 69 1012.8
20260510160050 65 194 0.9 5.2 0.00 0.48 0.01 72 1012.9
20260510154550 65 137 0.9 4.3 0.00 0.51 0.01 72 1013.1
20260510153048 63 340 0.9 3.5 0.00 0.51 0.01 74 1013.2
20260510151552 62 149 0.9 4.3 0.00 0.51 0.01 76 1013.1
20260510150053 61 125 0.9 3.5 0.00 0.51 0.01 78 1013.3
20260510144551 60 157 0.9 4.3 0.00 0.55 0.01 79 1013.5
20260510143050 59 267 0.0 2.6 0.00 0.55 0.01 83 1013.4
20260510141600 58 318 0.0 2.6 0.00 0.55 0.01 83 1013.6
20260510140053 57 312 0.0 3.5 0.00 0.55 0.01 85 1013.7
20260510134559 56 30 0.9 2.6 0.00 0.55 0.01 86 1013.6
20260510133102 56 217 0.0 2.6 0.00 0.55 0.01 87 1013.5
20260510131601 54 190 0.0 2.6 0.00 0.55 0.01 87 1013.6
20260510130050 54 188 0.9 3.5 0.00 0.55 0.01 87 1013.5
20260510124548 54 177 0.9 3.5 0.00 0.55 0.01 86 1013.6
20260510123100 53 225 0.0 4.3 0.00 0.55 0.01 85 1013.4
20260510121552 53 0 0.9 3.5 0.00 0.55 0.01 85 1013.4
20260510120048 52 215 0.9 2.6 0.00 0.55 0.01 85 1013.5
20260510114550 52 221 0.0 1.7 0.00 0.55 0.01 85 1013.5
20260510113053 52 128 0.0 1.7 0.00 0.55 0.01 85 1013.3
20260510111551 51 0 0.0 2.6 0.00 0.55 0.01 85 1012.8
20260510110043 50 128 0.9 3.5 0.00 0.55 0.01 85 1012.9
20260510104551 49 0 0.0 1.7 0.00 0.55 0.01 85 1012.8
20260510103055 48 0 0.0 0.9 0.00 0.55 0.01 86 1013.4
20260510101552 48 0 0.0 0.9 0.00 0.55 0.01 86 1013.0
20260510100055 47 0 0.0 0.0 0.00 0.55 0.01 86 1013.2
20260510094551 47 0 0.0 0.9 0.00 0.55 0.01 86 1012.9
20260510093050 48 0 0.0 0.0 0.00 0.55 0.01 86 1012.7
20260510091552 49 0 0.0 0.0 0.00 0.55 0.01 86 1012.6
20260510090058 49 0 0.0 0.0 0.00 0.55 0.01 86 1012.5
20260510084543 50 0 0.0 0.9 0.00 0.55 0.01 85 1012.4
20260510083055 50 0 0.0 1.7 0.00 0.55 0.01 85 1012.4
20260510081553 50 0 0.0 1.7 0.00 0.55 0.01 85 1012.4
20260510080050 50 139 0.0 1.7 0.00 0.55 0.01 85 1012.2
20260510074553 50 0 0.0 0.9 0.00 0.55 0.01 85 1012.2
20260510073111 50 0 0.0 0.9 0.00 0.55 0.01 85 1012.1
20260510071603 50 0 0.0 0.0 0.00 0.55 0.01 85 1011.9
20260510070050 50 0 0.0 0.0 0.00 0.55 0.01 85 1011.9
20260510064559 50 0 0.0 0.0 0.00 0.55 0.01 85 1012.0
20260510063050 50 0 0.0 0.0 0.00 0.55 0.01 85 1012.1
20260510061555 50 0 0.0 0.9 0.00 0.55 0.01 85 1011.9
20260510060049 50 139 0.0 0.9 0.00 0.55 0.01 85 1012.1
20260510054548 50 0 0.0 0.9 0.01 0.55 0.01 85 1012.3
20260510053048 50 0 0.0 0.0 0.01 0.55 0.01 85 1012.6
20260510051545 49 0 0.0 1.7 0.01 0.55 0.01 86 1012.7
20260510050052 49 0 0.0 0.9 0.01 0.55 0.01 86 1012.7
20260510045049 48 0 0.0 0.9 0.00 0.54 0.00 86 1012.7
20260510043106 48 0 0.0 0.9 0.00 0.54 0.00 86 1012.5
20260510041550 48 0 0.0 0.0 0.00 0.54 0.00 86 1012.3
20260510040110 48 0 0.0 0.9 0.00 0.54 0.00 86 1012.7
20260510034549 48 0 0.0 0.9 0.00 0.54 0.54 86 1012.9
20260510033053 48 0 0.0 0.0 0.00 0.54 0.54 86 1013.0
20260510031554 48 0 0.0 0.0 0.00 0.54 0.54 86 1013.3
20260510030048 48 0 0.0 0.0 0.00 0.54 0.54 86 1013.3
20260510024546 48 0 0.0 0.0 0.00 0.54 0.54 86 1013.4
20260510023048 48 0 0.0 0.9 0.01 0.54 0.54 86 1013.6
20260510021551 48 0 0.0 0.9 0.01 0.54 0.54 86 1013.4
20260510020055 47 0 0.0 0.9 0.01 0.54 0.54 86 1013.7
20260510014618 47 0 0.0 0.9 0.01 0.54 0.54 86 1014.0
20260510013051 47 139 0.0 0.9 0.01 0.52 0.52 86 1013.7
20260510011556 47 0 0.0 1.7 0.04 0.52 0.52 86 1013.4
20260510010054 47 0 0.0 1.7 0.06 0.52 0.52 86 1013.5
20260510004551 47 139 0.9 1.7 0.09 0.52 0.52 86 1013.4
20260510003057 47 139 0.0 1.7 0.11 0.52 0.52 87 1013.6
20260510001554 47 0 0.0 1.7 0.10 0.49 0.49 87 1013.7
20260510000052 47 139 0.0 1.7 0.09 0.47 0.47 87 1013.7
20260509234548 47 0 0.0 1.7 0.07 0.44 0.44 87 1013.8
20260509233053 47 139 0.0 1.7 0.04 0.41 0.41 87 1013.5
20260509231549 47 139 0.0 0.9 0.03 0.39 0.39 87 1013.4
20260509230051 47 0 0.0 1.7 0.03 0.38 0.38 87 1013.4
20260509224557 47 0 0.0 0.9 0.03 0.37 0.37 87 1013.5
20260509223049 47 0 0.0 0.9 0.05 0.37 0.37 87 1013.4
20260509221602 47 0 0.0 0.9 0.10 0.36 0.36 87 1013.5